User: anonymous
Location: Caltech
(34.1382°N, 118.1253°W)
Time: 06:45:23
(UTC-07:00)
Language:

Iridium 14 - Orbit

View from above orbital plane
View from above orbital plane
View from above satellite
View from above satellite

Ground track
Ground track

The orbit data is extracted from the following two-line orbital elements,

1 25777U 99032A   14233.30389865  .00000304  00000-0  65883-4 0   448
2 25777 086.5138 294.8384 0002412 108.0605 295.9545 14.54939455806897
Epoch (UTC): 21 August 2014 07:17:36
Eccentricity: 0.0002412
inclination: 86.5138°
perigee height: 708 km
apogee height: 711 km
right ascension of ascending node: 294.8384°
argument of perigee: 108.0605°
revolutions per day: 14.54939455
mean anomaly at epoch: 295.9545°
orbit number at epoch: 80689

The dashed part of the orbit path shows where the satellite is in the earth's shadow,  

DLR